FW5821 Weather Reports


Display with metric or nautical units.
time (UTC)temp
F
wind
direction
speed
MPH
gust
MPH
rain 1hr
in
rain 24hr
in
rain mn
in
humidity
%
barometer
mb
20260502213602 62 271 0.0 0.0 0.00 0.00 0.00 75 1014.1
20260502212602 62 116 0.0 0.0 0.00 0.00 0.00 75 1013.1
20260502211602 63 116 0.0 0.0 0.00 0.00 0.00 75 1012.6
20260502210558 63 116 0.0 0.0 0.00 0.00 0.00 75 1012.6
20260502205559 63 116 0.0 0.0 0.00 0.00 0.00 75 1012.6
20260502204556 64 121 0.0 0.0 0.00 0.00 0.00 75 1012.7
20260502203555 64 125 0.0 0.0 0.00 0.00 0.00 74 1012.9
20260502202553 65 120 0.0 0.0 0.00 0.00 0.00 73 1013.2
20260502201552 66 117 0.0 0.0 0.00 0.00 0.00 71 1013.3
20260502200550 67 134 0.0 0.0 0.00 0.00 0.00 71 1013.5
20260502195551 67 142 0.0 0.0 0.00 0.00 0.00 70 1013.6
20260502194548 67 23 0.0 0.0 0.00 0.00 0.00 69 1013.2
20260502193548 68 37 0.0 0.0 0.00 0.00 0.00 70 1013.2
20260502191544 69 348 0.0 0.0 0.00 0.00 0.00 68 1013.2
20260502190544 70 348 0.0 0.0 0.00 0.00 0.00 65 1013.2
20260502185540 70 348 0.0 0.0 0.00 0.00 0.00 66 1013.2
20260502183539 71 348 0.0 0.0 0.00 0.00 0.00 63 1013.3
20260502182539 72 348 0.0 0.0 0.00 0.00 0.00 63 1013.2
20260502181538 72 348 0.0 0.0 0.00 0.00 0.00 62 1013.2
20260502180538 72 348 0.0 0.0 0.00 0.00 0.00 62 1013.0
20260502163533 74 321 0.0 0.0 0.00 0.00 0.00 60 1013.8
20260502162533 74 309 0.0 0.0 0.00 0.00 0.00 60 1014.0
20260502161534 75 0 0.0 0.0 0.00 0.00 0.00 56 1014.2
20260502160532 74 0 0.0 0.0 0.00 0.00 0.00 56 1014.1
20260502151531 74 0 0.0 0.0 0.00 0.00 0.00 57 1014.8
20260502150530 75 268 0.0 0.0 0.00 0.00 0.00 61 1015.0
20260502130522 73 0 0.0 0.0 0.00 0.00 0.00 59 1016.2
20260502123513 74 0 0.0 0.0 0.00 0.00 0.00 57 1016.6
20260502122512 75 296 0.0 0.0 0.00 0.00 0.00 61 1016.6
20260502120511 73 0 0.0 0.0 0.00 0.00 0.00 58 1016.8
20260502115507 72 272 0.0 0.0 0.00 0.00 0.00 60 1016.8
20260502113507 72 0 0.0 0.0 0.00 0.00 0.00 59 1017.1
20260502112520 73 214 0.0 0.0 0.00 0.00 0.00 56 1017.1
20260502111509 73 0 0.0 0.0 0.00 0.00 0.00 60 1017.2
20260502110518 72 169 0.0 0.0 0.00 0.00 0.00 60 1017.2
20260502105505 72 0 0.0 0.0 0.00 0.00 0.00 58 1017.2
20260502104504 73 0 0.0 0.0 0.00 0.00 0.00 60 1017.3
20260502103504 71 278 0.0 0.0 0.00 0.00 0.00 62 1017.4
20260502102505 71 0 0.0 0.0 0.00 0.00 0.00 60 1017.5
20260502101504 71 0 0.0 0.0 0.00 0.00 0.00 61 1017.5
20260502100503 71 0 0.0 0.0 0.00 0.00 0.00 64 1017.6
20260502091455 68 0 0.0 0.0 0.00 0.00 0.00 63 1017.8
20260502090455 67 0 0.0 0.0 0.00 0.00 0.00 63 1017.8
20260502071436 59 206 0.0 0.0 0.00 0.00 0.00 61 1018.1
20260502070434 59 204 0.0 0.0 0.00 0.00 0.00 60 1018.1
20260502065437 59 197 0.0 0.0 0.00 0.00 0.00 59 1018.3
20260502064433 60 180 0.0 0.0 0.00 0.00 0.00 59 1018.1
20260502063430 60 180 0.0 0.0 0.00 0.00 0.00 59 1018.0
20260502062428 60 180 0.0 0.0 0.00 0.00 0.00 58 1017.9
20260502061429 60 197 0.0 0.0 0.00 0.00 0.00 60 1018.1
20260502060426 59 189 0.0 0.0 0.00 0.00 0.00 60 1018.0
20260502055425 58 203 0.0 0.0 0.00 0.00 0.00 61 1018.1
20260502053421 56 149 0.0 0.0 0.00 0.00 0.00 65 1018.0
20260502052422 55 144 0.0 0.0 0.00 0.00 0.00 66 1017.7
20260502051417 53 138 0.0 0.0 0.00 0.00 0.00 70 1017.8
20260502045420 51 138 0.0 0.0 0.00 0.00 0.00 70 1017.8
20260502044417 50 138 0.0 0.0 0.00 0.00 0.00 70 1017.9
20260502043420 50 138 0.0 0.0 0.00 0.00 0.00 71 1017.9
20260502042418 49 138 0.0 0.0 0.00 0.00 0.00 72 1017.8
20260502041416 49 140 0.0 0.0 0.00 0.00 0.00 71 1017.9
20260502040416 50 140 0.0 0.0 0.00 0.00 0.00 68 1018.0
20260502035417 51 141 0.0 0.0 0.00 0.00 0.00 66 1018.3
20260502034416 51 141 0.0 0.0 0.00 0.00 0.00 67 1018.2
20260502033417 51 140 0.0 0.0 0.00 0.00 0.00 67 1018.1
20260502032418 50 133 0.0 0.0 0.00 0.00 0.00 68 1018.2
20260502031431 49 137 0.0 0.0 0.00 0.00 0.00 69 1018.2
20260502030418 49 140 0.0 0.0 0.00 0.00 0.00 70 1018.3
20260502025417 49 141 0.0 0.0 0.00 0.00 0.00 70 1018.4
20260502023415 50 166 0.0 0.0 0.00 0.00 0.00 67 1018.6
20260502021415 51 168 0.0 0.0 0.00 0.00 0.00 66 1018.7
20260502020414 51 168 0.0 0.0 0.00 0.00 0.00 67 1018.7
20260502015416 51 168 0.0 0.0 0.00 0.00 0.00 66 1018.7
20260502014414 51 169 0.0 0.0 0.00 0.00 0.00 66 1018.8
20260502013415 51 161 0.0 0.0 0.00 0.00 0.00 66 1018.8
20260502012415 51 147 0.0 0.0 0.00 0.00 0.00 65 1018.8
20260502011414 51 145 0.0 0.0 0.00 0.00 0.00 64 1018.9
20260502010412 52 145 0.0 0.0 0.00 0.00 0.00 64 1019.0
20260502005411 52 144 0.0 0.0 0.00 0.00 0.00 63 1019.2
20260502004410 52 159 0.0 0.0 0.00 0.00 0.00 63 1019.2
20260502002411 53 158 0.0 0.0 0.00 0.00 0.00 62 1019.5
20260502001412 54 157 0.0 0.0 0.00 0.00 0.00 62 1019.5
20260502000420 54 154 0.0 0.0 0.00 0.00 0.00 61 1019.6
20260501235413 54 154 0.0 0.0 0.00 0.00 0.00 60 1019.7
20260501234414 55 154 0.0 0.0 0.00 0.00 0.00 60 1019.8
20260501233411 55 151 0.0 0.0 0.00 0.00 0.00 59 1019.8
20260501232410 56 157 0.0 0.0 0.00 0.00 0.00 58 1019.8
20260501231406 56 157 0.0 0.0 0.00 0.00 0.00 57 1020.0
20260501230409 56 157 0.0 0.0 0.00 0.00 0.00 56 1020.0
20260501225408 57 155 0.0 0.0 0.00 0.00 0.00 55 1020.0
20260501223405 58 148 0.0 0.0 0.00 0.00 0.00 53 1020.0
20260501222404 59 148 0.0 0.0 0.00 0.00 0.00 52 1019.9
20260501221407 59 147 0.0 0.0 0.00 0.00 0.00 50 1020.0
20260501220405 60 144 0.0 0.0 0.00 0.00 0.00 49 1020.0